Weather History for KMGW - December, 2012

Change the Weather History Date:

Tuesday, December 18, 2012

  Actual Average Record
Temperature  
Mean Temperature 43 °F 34 °F  
Max Temperature 49 °F 42 °F 67 °F (1967)
Min Temperature 37 °F 26 °F 0 °F (1989)
Degree Days  
Heating Degree Days 22 31  
Month to date heating degree days 330 516  
Since 1 July heating degree days 1451 1564  
Cooling Degree Days 0 0  
Month to date cooling degree days 0 0  
Year to date cooling degree days 1141 814  
Moisture  
Dew Point 37 °F    
Average Humidity 82    
Maximum Humidity 93    
Minimum Humidity 70    
Precipitation  
Precipitation 0.07 in 0.09 in - ()
Month to date precipitation 3.35 1.77  
Year to date precipitation 33.82 40.69  
Sea Level Pressure  
Sea Level Pressure 29.72 in    
Wind  
Wind Speed 7 mph (WSW)    
Max Wind Speed 15 mph    
Max Gust Speed 20 mph    
Visibility 10 miles    
Events Rain    
T = Trace of Precipitation, MM = Missing Value Source: NWS Daily Summary

Daily Weather History Graph

Daily Weather History Graph

Search for Another Location

Airport or City:

Trip Planner

Search our weather history database for the weather conditions in past years. The results will help you decide how hot, cold, wet, or windy it might be!

Date:

Astronomy

Dec. 18, 2012 Rise Set
Actual Time 7:35 AM EST 4:57 PM EST
Civil Twilight 7:05 AM EST 5:28 PM EST
Nautical Twilight 6:31 AM EST 6:01 PM EST
Astronomical Twilight 5:58 AM EST 6:34 PM EST
Moon 11:15 AM EST (12/18) 11:20 PM EST (12/18)
Length of Visible Light 10h 22m
Length of Day
9h 22m
Waxing Crescent, 34% of the Moon is Illuminated
Dec 18
Waxing Crescent
Dec 20
First Quarter
Dec 28
Full
Jan 4
Last Quarter
Jan 11
New

Hourly Weather History & Observations

Time (EST) Temp. Windchill Dew Point Humidity Pressure Visibility Wind Dir Wind Speed Gust Speed Precip Events Conditions
12:24 AM 48.2 °F - 44.6 °F 87% 29.56 in 10.0 mi SW 9.2 mph - N/A   Overcast
12:53 AM 48.0 °F - 45.0 °F 89% 29.56 in 10.0 mi SW 8.1 mph - N/A   Overcast
1:19 AM 48.2 °F - 44.6 °F 87% 29.56 in 10.0 mi SW 6.9 mph - N/A   Overcast
1:53 AM 48.0 °F - 44.1 °F 86% 29.55 in 10.0 mi SSW 3.5 mph - N/A   Overcast
2:06 AM 48.2 °F - 44.6 °F 87% 29.56 in 10.0 mi SSW 5.8 mph - N/A   Overcast
2:53 AM 48.0 °F - 44.1 °F 86% 29.57 in 10.0 mi SSW 9.2 mph - N/A   Overcast
3:41 AM 48.2 °F - 42.8 °F 82% 29.57 in 10.0 mi SSW 9.2 mph - N/A   Overcast
3:53 AM 48.0 °F - 43.0 °F 83% 29.57 in 10.0 mi SW 10.4 mph - N/A   Overcast
4:53 AM 46.9 °F - 43.0 °F 86% 29.57 in 10.0 mi SW 6.9 mph - N/A   Overcast
5:53 AM 46.9 °F - 43.0 °F 86% 29.59 in 10.0 mi Variable 5.8 mph - N/A   Overcast
6:32 AM 46.4 °F 42.4 °F 42.8 °F 87% 29.60 in 9.0 mi SW 8.1 mph - 0.00 in Rain Light Rain
6:53 AM 46.0 °F 42.5 °F 42.1 °F 86% 29.61 in 10.0 mi Variable 6.9 mph - 0.01 in   Overcast
7:02 AM 46.4 °F 41.1 °F 42.8 °F 87% 29.60 in 8.0 mi WSW 11.5 mph - 0.00 in Rain Light Rain
7:53 AM 45.0 °F 39.3 °F 39.0 °F 80% 29.63 in 10.0 mi WSW 11.5 mph - 0.01 in Rain Light Rain
8:28 AM 44.6 °F 40.7 °F 39.2 °F 81% 29.64 in 10.0 mi Variable 6.9 mph - 0.00 in Rain Light Rain
8:53 AM 45.0 °F 40.6 °F 37.9 °F 76% 29.67 in 10.0 mi West 8.1 mph - 0.00 in Rain Light Rain
9:53 AM 43.0 °F 35.7 °F 37.9 °F 82% 29.71 in 9.0 mi West 15.0 mph - 0.00 in Rain Light Rain
10:23 AM 41.0 °F 33.9 °F 37.4 °F 87% 29.72 in 10.0 mi WNW 12.7 mph - 0.00 in Rain Light Rain
10:53 AM 39.9 °F 32.5 °F 37.9 °F 93% 29.75 in 8.0 mi WNW 12.7 mph - 0.03 in Rain Light Rain
11:40 AM 41.0 °F 37.1 °F 37.4 °F 87% 29.75 in 10.0 mi WNW 5.8 mph - 0.00 in Rain Light Rain
11:51 AM 41.0 °F 34.3 °F 35.6 °F 81% 29.74 in 10.0 mi West 11.5 mph - 0.00 in   Overcast
11:53 AM 41.0 °F 34.3 °F 36.0 °F 82% 29.76 in 10.0 mi West 11.5 mph - 0.00 in   Overcast
12:53 PM 39.9 °F 32.5 °F 36.0 °F 86% 29.77 in 10.0 mi West 12.7 mph - 0.01 in Rain Light Rain
1:53 PM 39.9 °F 35.1 °F 37.0 °F 89% 29.79 in 8.0 mi Variable 6.9 mph - 0.00 in Rain Light Rain
2:01 PM 39.2 °F 35.0 °F 35.6 °F 87% 29.77 in 5.0 mi West 5.8 mph - 0.01 in Rain Light Rain
2:22 PM 39.2 °F 35.9 °F 37.4 °F 93% 29.78 in 10.0 mi Variable 4.6 mph - 0.01 in Rain Light Rain
2:31 PM 39.2 °F 35.9 °F 35.6 °F 87% 29.78 in 10.0 mi Variable 4.6 mph - 0.01 in Rain Light Rain
2:53 PM 39.9 °F 35.1 °F 35.1 °F 83% 29.81 in 10.0 mi West 6.9 mph - 0.01 in Rain Light Rain
3:24 PM 41.0 °F 37.1 °F 35.6 °F 81% 29.79 in 10.0 mi WSW 5.8 mph - 0.00 in   Overcast
3:53 PM 41.0 °F 38.0 °F 33.1 °F 73% 29.81 in 10.0 mi WSW 4.6 mph - 0.00 in   Mostly Cloudy
4:49 PM 39.2 °F 35.0 °F 30.2 °F 70% 29.81 in 10.0 mi Variable 5.8 mph 18.4 mph N/A   Mostly Cloudy
4:53 PM 39.9 °F 35.1 °F 30.9 °F 70% 29.83 in 10.0 mi West 6.9 mph - N/A   Mostly Cloudy
5:01 PM 39.2 °F 37.0 °F 30.2 °F 70% 29.81 in 10.0 mi Variable 3.5 mph - N/A   Scattered Clouds
5:45 PM 39.2 °F 35.9 °F 30.2 °F 70% 29.82 in 10.0 mi SW 4.6 mph - N/A   Mostly Cloudy
5:53 PM 39.0 °F 36.8 °F 30.9 °F 73% 29.85 in 10.0 mi Variable 3.5 mph - N/A   Mostly Cloudy
6:21 PM 39.2 °F 35.9 °F 30.2 °F 70% 29.84 in 10.0 mi SW 4.6 mph - N/A   Scattered Clouds
6:53 PM 37.9 °F 34.4 °F 30.9 °F 76% 29.86 in 10.0 mi SW 4.6 mph - N/A   Clear
7:53 PM 37.9 °F 35.5 °F 30.9 °F 76% 29.86 in 10.0 mi South 3.5 mph - N/A   Scattered Clouds
8:53 PM 37.9 °F 34.4 °F 33.1 °F 83% 29.84 in 10.0 mi Variable 4.6 mph - N/A   Mostly Cloudy
9:11 PM 39.2 °F 35.0 °F 33.8 °F 81% 29.83 in 10.0 mi SSW 5.8 mph - N/A   Overcast
9:53 PM 39.0 °F 35.7 °F 33.1 °F 79% 29.86 in 10.0 mi SSW 4.6 mph - N/A   Overcast
10:53 PM 39.0 °F 34.8 °F 34.0 °F 82% 29.86 in 10.0 mi SSW 5.8 mph - N/A   Overcast
11:14 PM 39.2 °F 35.9 °F 33.8 °F 81% 29.84 in 10.0 mi SW 4.6 mph - N/A   Overcast
11:53 PM 39.0 °F - 34.0 °F 82% 29.85 in 10.0 mi Calm Calm - N/A   Overcast